Location: Oshawa
(43.9000°N, 78.8670°W)
Time: 03:48:49
(UTC-04:00)

Iridium 54 - Visible Passes

Search period start: 17 August 2017 00:00
Search period end: 27 August 2017 00:00
Orbit: 776 x 779 km, 86.4° (Epoch: 16 August)

Date Brightness Start Highest point End Pass type
(mag) Time Alt. Az. Time Alt. Az. Time Alt. Az.
17 Aug 6.6 01:09:21 41° NNE 01:09:21 41° NNE 01:12:49 10° N visible
17 Aug 7.6 02:49:49 16° WNW 02:49:49 16° WNW 02:52:11 10° NNW visible
18 Aug 7.1 00:35:58 28° NE 00:35:58 28° NE 00:38:57 10° NNE visible
18 Aug 7.2 02:16:27 25° NW 02:16:27 25° NW 02:19:33 10° NNW visible
19 Aug 7.6 00:02:36 17° NE 00:02:36 17° NE 00:04:42 10° NE visible
19 Aug 6.8 01:43:04 36° NNW 01:43:04 36° NNW 01:46:24 10° N visible
20 Aug 6.7 01:09:41 40° N 01:09:41 40° N 01:12:58 10° N visible
20 Aug 7.9 02:50:09 11° WNW 02:50:09 11° WNW 02:51:05 10° NW visible
21 Aug 7.0 00:36:18 32° NNE 00:36:18 32° NNE 00:39:17 10° NNE visible
21 Aug 7.6 02:16:46 19° NW 02:16:46 19° NW 02:19:12 10° NNW visible
22 Aug 7.4 00:02:54 22° NE 00:02:54 22° NE 00:05:18 10° NNE visible
22 Aug 7.2 01:43:22 28° NW 01:43:22 28° NW 01:46:18 10° NNW visible
22 Aug 7.8 23:29:30 13° NE 23:29:30 13° NE 23:30:45 10° NE visible
23 Aug 6.9 01:09:58 35° NNW 01:09:58 35° NNW 01:13:02 10° N visible
24 Aug 6.9 00:36:34 34° NNE 00:36:34 34° NNE 00:39:30 10° N visible
24 Aug 7.9 02:17:03 14° NW 02:17:03 14° NW 02:18:32 10° NW visible
25 Aug 7.2 00:03:10 26° NE 00:03:10 26° NE 00:05:42 10° NNE visible
25 Aug 7.6 01:43:38 21° NW 01:43:38 21° NW 01:46:04 10° NNW visible
25 Aug 7.6 23:29:45 17° NE 23:29:45 17° NE 23:31:33 10° NNE visible
26 Aug 7.2 01:10:13 29° NNW 01:10:13 29° NNW 01:13:00 10° N visible
26 Aug 7.9 22:56:20 10° NE 22:56:20 10° NE 22:56:30 10° NE visible
